This is the latest recevied weather packets stored in our database for station/object KE0QIB. If no packets are shown the sender has not sent any weather packets the latest 10 day(s).
| Time | Temp. | Humidity | Pressure | Rain* | Wind** | Luminosity | Snow |
|---|---|---|---|---|---|---|---|
| 1778102509 | 10.56° C | 29% | 1001 hPa | 0 mm | - | - | - |
| 1778102209 | 11.11° C | 30% | 1001 hPa | 0 mm | - | - | - |
| 1778101909 | 10.56° C | 33% | 1001 hPa | 0 mm | - | - | - |
| 1778101609 | 10.56° C | 30% | 1001.1 hPa | 0 mm | - | - | - |
| 1778101309 | 10.56° C | 31% | 1001.1 hPa | 0 mm | - | - | - |
| 1778101009 | 10.56° C | 28% | 1001.1 hPa | 0 mm | - | - | - |
| 1778100709 | 10.56° C | 29% | 1001.5 hPa | 0 mm | - | - | - |
| 1778100409 | 10.56° C | 29% | 1001.5 hPa | 0 mm | - | - | - |
| 1778100109 | 10.56° C | 32% | 1001.5 hPa | 0 mm | - | - | - |
| 1778099809 | 10.56° C | 30% | 1001.6 hPa | 0 mm | - | - | - |
| 1778099509 | 10.56° C | 30% | 1001.6 hPa | 0 mm | - | - | - |
| 1778099209 | 10.56° C | 29% | 1001.6 hPa | 0 mm | - | - | - |
| 1778098909 | 10.56° C | 32% | 1001.7 hPa | 0 mm | - | - | - |
| 1778098609 | 10.56° C | 30% | 1001.7 hPa | 0 mm | - | - | - |
| 1778098309 | 10.56° C | 31% | 1001.7 hPa | 0 mm | - | - | - |
| 1778098009 | 10.56° C | 32% | 1001.8 hPa | 0 mm | - | - | - |
| 1778097709 | 10.56° C | 32% | 1001.8 hPa | 0 mm | - | - | - |
| 1778097409 | 10.56° C | 30% | 1001.8 hPa | 0 mm | - | - | - |
| 1778097109 | 10.56° C | 32% | 1002.2 hPa | 0 mm | - | - | - |
| 1778096809 | 10° C | 31% | 1002.2 hPa | 0 mm | - | - | - |
| 1778096509 | 10° C | 31% | 1002.2 hPa | 0 mm | - | - | - |
| 1778096209 | 10° C | 32% | 1002.4 hPa | 0 mm | - | - | - |
| 1778095909 | 10° C | 33% | 1002.4 hPa | 0 mm | - | - | - |
| 1778095609 | 9.44° C | 33% | 1002.4 hPa | 0 mm | - | - | - |
| 1778095309 | 9.44° C | 31% | 1002.3 hPa | 0 mm | - | - | - |
* Rain latest hour (hover to see other rain measurements)
** Current wind speed in m/s (hover to see current wind gust speed)